Weather History for KLCK - February, 2013

Change the Weather History Date:

Tuesday, February 5, 2013

  Actual Average Record
Temperature  
Mean Temperature 32 °F -  
Max Temperature 35 °F 39 °F 62 °F (2008)
Min Temperature 28 °F 24 °F 1 °F (2007)
Degree Days  
Heating Degree Days 34    
Moisture  
Dew Point 25 °F    
Average Humidity 79    
Maximum Humidity 89    
Minimum Humidity 68    
Precipitation  
Precipitation 0.00 in - - ()
Sea Level Pressure  
Sea Level Pressure 29.89 in    
Wind  
Wind Speed 3 mph (WNW)    
Max Wind Speed 12 mph    
Max Gust Speed 18 mph    
Visibility 5 miles    
Events      
Averages and records for this station are not official NWS values.
T = Trace of Precipitation, MM = Missing Value Source: NWS Daily Summary

Daily Weather History Graph

Daily Weather History Graph

Search for Another Location

Airport or City:

Trip Planner

Search our weather history database for the weather conditions in past years. The results will help you decide how hot, cold, wet, or windy it might be!

Date:

Astronomy

Feb. 05, 2013 Rise Set
Actual Time 7:35 AM EST 5:56 PM EST
Civil Twilight 7:07 AM EST 6:24 PM EST
Nautical Twilight 6:35 AM EST 6:56 PM EST
Astronomical Twilight 6:03 AM EST 7:28 PM EST
Moon 3:16 AM EST 1:13 PM EST
Length of Visible Light 11h 17m
Length of Day
10h 20m
Waning Crescent, 27% of the Moon is Illuminated
Feb 5
Waning Crescent
Feb 10
New
Feb 17
First Quarter
Feb 25
Full
Mar 4
Last Quarter

Hourly Weather History & Observations

Time (EST) Temp. Windchill Dew Point Humidity Pressure Visibility Wind Dir Wind Speed Gust Speed Precip Events Conditions
12:15 AM 30.2 °F - 27.1 °F 88% 29.85 in 3.0 mi Calm Calm - N/A   Overcast
12:35 AM 30.0 °F - 27.0 °F 88% 29.85 in 3.0 mi Calm Calm - N/A   Overcast
12:55 AM 29.8 °F - 26.8 °F 88% 29.85 in 2.5 mi Calm Calm - N/A   Overcast
1:15 AM 30.0 °F - 26.8 °F 88% 29.86 in 2.5 mi Calm Calm - N/A   Overcast
1:35 AM 29.7 °F - 26.6 °F 88% 29.86 in 2.5 mi Calm Calm - N/A   Overcast
1:55 AM 29.7 °F - 26.6 °F 88% 29.86 in 2.0 mi Calm Calm - N/A   Overcast
2:15 AM 29.7 °F - 26.6 °F 88% 29.86 in 4.0 mi Calm Calm - N/A   Overcast
2:35 AM 29.5 °F - 26.6 °F 89% 29.86 in 2.5 mi Calm Calm - N/A   Overcast
2:55 AM 29.7 °F - 26.6 °F 88% 29.87 in 2.5 mi Calm Calm - N/A   Overcast
3:15 AM 29.7 °F - 26.6 °F 88% 29.86 in 2.5 mi Calm Calm - N/A   Overcast
3:35 AM 29.7 °F - 26.6 °F 88% 29.86 in 2.5 mi Calm Calm - N/A   Overcast
3:55 AM 29.7 °F 26.1 °F 26.8 °F 89% 29.85 in 1.2 mi North 3.5 mph - N/A   Overcast
4:15 AM 30.2 °F 25.4 °F 27.3 °F 89% 29.86 in 1.8 mi NNW 4.6 mph - N/A   Overcast
4:35 AM 30.2 °F 24.3 °F 27.3 °F 89% 29.86 in 1.8 mi North 5.8 mph - N/A   Overcast
4:55 AM 29.7 °F 23.7 °F 26.6 °F 88% 29.85 in 2.0 mi North 5.8 mph - N/A   Overcast
5:15 AM 29.5 °F 24.5 °F 25.9 °F 86% 29.87 in 3.0 mi NNW 4.6 mph - N/A   Overcast
5:35 AM 29.8 °F 26.3 °F 26.1 °F 86% 29.86 in 3.0 mi North 3.5 mph - N/A   Overcast
5:55 AM 29.8 °F 23.9 °F 25.7 °F 85% 29.86 in 3.0 mi North 5.8 mph - N/A   Overcast
6:15 AM 29.8 °F 26.3 °F 25.7 °F 85% 29.86 in 2.5 mi North 3.5 mph - N/A   Overcast
6:35 AM 29.5 °F 24.5 °F 25.5 °F 85% 29.85 in 3.0 mi NNE 4.6 mph - N/A   Overcast
6:55 AM 29.3 °F - 24.8 °F 83% 29.86 in 4.0 mi Calm Calm - N/A   Overcast
7:15 AM 29.3 °F - 24.8 °F 83% 29.88 in 4.0 mi Calm Calm - N/A   Overcast
7:35 AM 29.1 °F 25.4 °F 24.8 °F 84% 29.88 in 2.5 mi NW 3.5 mph - N/A   Overcast
7:55 AM 28.8 °F - 24.8 °F 85% 29.88 in 2.0 mi Calm Calm - N/A   Overcast
8:15 AM 28.4 °F 23.3 °F 24.8 °F 86% 29.90 in 2.0 mi WNW 4.6 mph - N/A   Overcast
8:35 AM 28.4 °F 21.2 °F 24.6 °F 86% 29.90 in 2.0 mi NW 6.9 mph - N/A   Overcast
8:55 AM 28.4 °F 22.2 °F 24.6 °F 86% 29.90 in 1.8 mi NNW 5.8 mph - N/A   Overcast
9:15 AM 28.4 °F 22.2 °F 24.4 °F 85% 29.90 in 1.8 mi NW 5.8 mph - N/A   Overcast
9:35 AM 28.4 °F 21.2 °F 24.3 °F 84% 29.92 in 2.0 mi NW 6.9 mph - N/A   Overcast
9:55 AM 28.8 °F 20.9 °F 24.3 °F 83% 29.92 in 2.5 mi NW 8.1 mph - N/A   Haze
10:15 AM 28.9 °F 21.1 °F 23.9 °F 81% 29.92 in 3.0 mi NW 8.1 mph - N/A   Haze
10:35 AM 29.1 °F 22.1 °F 23.9 °F 81% 29.92 in 3.0 mi WNW 6.9 mph - N/A   Haze
10:55 AM 29.5 °F 22.5 °F 23.7 °F 79% 29.93 in 4.0 mi NW 6.9 mph - N/A   Haze
11:15 AM 30.4 °F 23.6 °F 23.7 °F 76% 29.93 in 5.0 mi NW 6.9 mph - N/A   Haze
11:35 AM 30.9 °F 25.2 °F 23.5 °F 74% 29.93 in 5.0 mi WNW 5.8 mph - N/A   Haze
11:55 AM 31.1 °F 23.1 °F 23.2 °F 72% 29.92 in 5.0 mi West 9.2 mph - N/A   Haze
12:15 PM 30.9 °F 24.3 °F 22.8 °F 72% 29.92 in 3.0 mi West 6.9 mph - N/A   Haze
12:35 PM 30.7 °F 22.6 °F 22.6 °F 72% 29.91 in 4.0 mi West 9.2 mph - N/A   Haze
12:55 PM 30.9 °F 25.2 °F 22.6 °F 71% 29.90 in 7.0 mi WSW 5.8 mph - N/A   Scattered Clouds
1:15 PM 31.1 °F 25.4 °F 22.6 °F 71% 29.89 in 7.0 mi SW 5.8 mph - N/A   Scattered Clouds
1:35 PM 31.5 °F 24.9 °F 22.5 °F 69% 29.89 in 7.0 mi West 6.9 mph - N/A   Overcast
1:55 PM 31.6 °F 26.0 °F 22.5 °F 69% 29.89 in 10.0 mi SW 5.8 mph - N/A   Overcast
2:15 PM 32.0 °F 24.8 °F 22.6 °F 68% 29.88 in 10.0 mi SW 8.1 mph - N/A   Overcast
2:35 PM 32.0 °F 24.8 °F 23.0 °F 69% 29.88 in 10.0 mi SW 8.1 mph - N/A   Overcast
2:55 PM 32.0 °F 24.8 °F 23.2 °F 70% 29.88 in 10.0 mi SW 8.1 mph - N/A   Overcast
3:15 PM 32.0 °F 25.6 °F 23.0 °F 69% 29.89 in 10.0 mi WSW 6.9 mph - N/A   Overcast
3:35 PM 32.2 °F 26.7 °F 23.0 °F 69% 29.89 in 10.0 mi WSW 5.8 mph - N/A   Overcast
3:55 PM 32.2 °F - 23.4 °F 70% 29.87 in 10.0 mi Calm Calm - N/A   Overcast
4:15 PM 32.4 °F 29.1 °F 23.4 °F 69% 29.87 in 10.0 mi SSE 3.5 mph - N/A   Overcast
4:35 PM 32.4 °F 26.9 °F 23.9 °F 71% 29.86 in 10.0 mi South 5.8 mph - N/A   Overcast
4:55 PM 32.5 °F 28.1 °F 25.0 °F 74% 29.86 in 7.0 mi South 4.6 mph - N/A   Overcast
5:15 PM 32.5 °F 29.3 °F 25.3 °F 75% 29.86 in 7.0 mi SSE 3.5 mph - N/A   Overcast
5:35 PM 32.5 °F - 25.5 °F 75% 29.86 in 7.0 mi Calm Calm - N/A   Overcast
5:55 PM 32.4 °F 29.1 °F 25.5 °F 76% 29.85 in 7.0 mi ESE 3.5 mph - N/A   Overcast
6:15 PM 32.2 °F - 25.7 °F 77% 29.87 in 7.0 mi Calm Calm - N/A   Overcast
6:35 PM 32.0 °F - 25.7 °F 78% 29.87 in 5.0 mi Calm Calm - N/A   Haze
6:55 PM 32.0 °F 28.7 °F 25.9 °F 78% 29.87 in 5.0 mi ENE 3.5 mph - N/A   Haze
7:15 PM 31.5 °F - 25.7 °F 79% 29.87 in 5.0 mi Calm Calm - N/A   Haze
7:35 PM 31.5 °F 28.1 °F 25.3 °F 78% 29.88 in 5.0 mi NE 3.5 mph - N/A   Haze
7:55 PM 31.5 °F - 25.2 °F 78% 29.90 in 5.0 mi Calm Calm - N/A   Haze
8:15 PM 31.5 °F - 25.3 °F 78% 29.91 in 5.0 mi Calm Calm - N/A   Haze
8:35 PM 31.6 °F - 25.7 °F 79% 29.92 in 4.0 mi Calm Calm - N/A   Haze
8:55 PM 31.8 °F - 26.2 °F 80% 29.93 in 4.0 mi Calm Calm - N/A   Haze
9:15 PM 32.0 °F - 26.1 °F 79% 29.93 in 5.0 mi Calm Calm - N/A   Haze
9:35 PM 32.2 °F 26.7 °F 26.1 °F 78% 29.93 in 5.0 mi West 5.8 mph - N/A   Haze
10:15 PM 34.7 °F 29.6 °F 27.3 °F 74% 29.95 in 7.0 mi West 5.8 mph - N/A   Overcast
10:35 PM 35.1 °F 30.1 °F 27.5 °F 74% 29.96 in 7.0 mi West 5.8 mph - N/A   Overcast
10:55 PM 34.9 °F 29.0 °F 27.5 °F 74% 29.97 in 7.0 mi West 6.9 mph - N/A   Overcast
11:15 PM 35.1 °F 29.3 °F 27.7 °F 74% 29.97 in 7.0 mi West 6.9 mph - N/A   Overcast
11:35 PM 35.2 °F 27.1 °F 27.9 °F 74% 29.98 in 7.0 mi WNW 11.5 mph 18.4 mph N/A   Overcast
11:55 PM 35.6 °F 28.0 °F 27.9 °F 73% 29.98 in 7.0 mi WNW 10.4 mph 17.3 mph N/A   Overcast